Location: Emory University Observatory
(33.7903°N, 84.3267°W)
Time: 06:47:01
(UTC-04:00)

ISS - Pass Details

Date: 15 October 2017
Orbit: 401 x 408 km, 51.6° (Epoch: 20 October)

Event Time Altitude Azimuth Distance (km) Brightness Sun altitude
Rises 20:09:52 0° 313° (NW) 2,321 0.8 -14.6°
Reaches altitude 10° 20:11:57 10° 314° (NW) 1,460 -0.4 -15.1°
Maximum altitude 20:15:14 90° 35° (NE) 408 -3.9 -15.8°
Enters shadow 20:16:39 31° 134° (SE) 734 -2.9 -16.1°
